DISKSAT A

Last updated on Fri Dec 19 2025 00:02:10 GMT+0000 (Coordinated Universal Time)

1 67219U 25305A 25352.25791201 .00000705 00000+0 64033-4 0 9995 2 67219 45.0103 321.2665 0004355 276.2808 83.7571 15.05868419 14
UTC large
Height (km)
Speed (km/s)
/
Latitude / Longitude
Inclination (degrees)
Orbital Period (minutes)
Azimuth
Elevation
Range (km)
Doppler Factor

Next 0 passes for location: London (51.5072 / 0.1276)

Sorry there are no passes over London.